Content
SEND FEEDBACK

Daily
Averages
Monthly
Summary
United States of America

BROOKLYN, NEW YORK


Home > North America > United States > New York
Elevation: 2 feet     Latitude: 40 36N     Longitude: 073 59W

WEATHER
 
SELECT A DAY
Number of Records: 185,245;   Date Range: 1/1/95 - 7/20/14
 
SHARE

PRINT THIS DATA

[ ← Previous Day ]
WEATHER ALMANAC - APRIL 30, 2013
[ Next Day → ]
[ °C ]   °F
Weather ElementAverageHighLow
Temperature55.7 °F62.1 °F (11:51 am)48 °F (10:51 pm)
Dewpoint35.6 °F46 °F (12:51 am)21.9 °F (3:51 pm)
Humidity50.8 %83 % (12:51 am)21 % (3:51 pm)
Barometer30.30 in30.35 in (9:51 pm)30.22 in (2:51 am)
Wind Speed9.8 mph21.9 mph (1:51 pm)
Wind Gust24.2 mph (3:51 pm)
Weather ElementAverage
Visibility10 mi
Wind DirectionE (89.6 °)

Weather ElementTotal
Precipitation---
Heating Degree Days10 (Base 65)
Growing Degree Days5.1 (Base 50)
Averaged from 24 records on April 30, 2013
WEATHER CONDITIONS BREAKOUT
WIND DIRECTION BREAKOUT
WEATHER BY HOUR - APRIL 30, 2013
[ °C ]   °F
Local TimeTemperatureDewpointHumidityBarometerVisibilityWind DirectionWind SpeedGust SpeedPrecipitationEventsConditions
12:51 AM51.1 °F46.0 °F83 %30.23 in10.0 miEast (100°)6.9 mphOvercast
1:51 AM51.1 °F46.0 °F83 %30.23 in10.0 miEast (90°)4.6 mphOvercast
2:51 AM52.0 °F46.0 °F80 %30.22 in10.0 miEast (80°)4.6 mphOvercast
3:51 AM52.0 °F44.1 °F74 %30.23 in10.0 miENE (70°)5.8 mphOvercast
4:51 AM52.0 °F42.1 °F69 %30.24 in10.0 miENE (60°)5.8 mphOvercast
5:51 AM52.0 °F39.9 °F63 %30.25 in10.0 miENE (60°)6.9 mphOvercast
6:51 AM53.1 °F39.9 °F61 %30.26 in10.0 miNE (50°)4.6 mphMostly Cloudy
7:51 AM54.0 °F42.1 °F64 %30.28 in10.0 miNE (50°)8.1 mphMostly Cloudy
8:51 AM57.0 °F44.1 °F62 %30.30 in10.0 miEast (80°)6.9 mphMostly Cloudy
9:51 AM59.0 °F45.0 °F60 %30.30 in10.0 miESE (110°)11.5 mphMostly Cloudy
10:51 AM61.0 °F44.1 °F54 %30.31 in10.0 miESE (110°)16.1 mphMostly Cloudy
11:51 AM62.1 °F43.0 °F50 %30.31 in10.0 miESE (120°)16.1 mphMostly Cloudy
12:51 PM62.1 °F28.0 °F28 %30.30 in10.0 miEast (100°)20.7 mphMostly Cloudy
1:51 PM62.1 °F25.0 °F24 %30.30 in10.0 miESE (120°)21.9 mphMostly Cloudy
2:51 PM62.1 °F24.1 °F23 %30.31 in10.0 miESE (120°)19.6 mphMostly Cloudy
3:51 PM62.1 °F21.9 °F21 %30.31 in10.0 miESE (110°)16.1 mph24.2 mphScattered Clouds
4:51 PM62.1 °F24.1 °F23 %30.32 in10.0 miESE (110°)13.8 mphScattered Clouds
5:51 PM60.1 °F25.0 °F26 %30.33 in10.0 miESE (120°)11.5 mphScattered Clouds
6:51 PM57.0 °F27.0 °F32 %30.34 in10.0 miESE (110°)10.4 mphScattered Clouds
7:51 PM54.0 °F28.0 °F37 %30.34 in10.0 miEast (100°)8.1 mphScattered Clouds
8:51 PM51.1 °F30.9 °F46 %30.34 in10.0 miESE (110°)6.9 mphScattered Clouds
9:51 PM51.1 °F30.9 °F46 %30.35 in10.0 miEast (90°)4.6 mphPartly Cloudy
10:51 PM48.0 °F33.1 °F56 %30.35 in10.0 miEast (80°)4.6 mphPartly Cloudy
11:51 PM48.9 °F33.1 °F54 %30.35 in10.0 miCalmClear
Hourly data recorded from KJFK, located miles away from Brooklyn, New York







STORIES FROM OUR PARTNERS